YINHE-1 (45024 NORAD) Tracking and Keplerian Element Data

This shows tracking and keplerian element data for the satellite.

Feedback or suggestion? Click here.




ElementValue
Catalog45024
NameYINHE-1
Epoch Orbit1153
Epoch Day94.19163195
Epoch Year2020
RAAN49.6868
Inclination86.3971
Eccentricity0.0014331
Argument of Perigee3.2661
Mean Anonmoly356.8647
Mean Motion14.8005838
Decay Rate2.7E-07
L11 45024U 20004A 20094.19163195 .00000027 00000-0 00000+0 0 9999
L22 45024 86.3971 49.6868 0014331 3.2661 356.8647 14.80058380 11538

Live tracking and technical data element details for YINHE-1 (NORAD 45024). YINHE-1 can be tracked NOW for your location showing map with azimuth and elevation plus other details from your city location.

Track the satellite on the map from your city or location and see movement details for azimuth, elevation, latitude, longitude, range, height, and movement on the map or in text.







IsCatalogInMostPopularTable: catalog: 45024, numindb: 19
Update: records affected: 1



GetName: 45024 YINHE-1

Hit Count: updated at: Fri, 10 Apr 2020 19:04:15 GMT